Location: Gerlach
(40.6516°N, 119.3568°W)
Time: 20:13:50
(UTC-07:00)

N. Korean satellite - Visible Passes

Search period start: 06 October 2022 00:00
Search period end: 16 October 2022 00:00
Orbit: 425 x 467 km, 97.3° (Epoch: 06 October)

Date Brightness Start Highest point End Pass type
(mag) Time Alt. Az. Time Alt. Az. Time Alt. Az.
06 Oct 8.3 05:47:21 10° NNE 05:50:20 32° E 05:53:18 10° SSE visible
07 Oct 10.0 05:13:09 10° ENE 05:14:02 11° E 05:14:55 10° ESE visible
08 Oct 6.7 06:07:32 10° NNE 06:10:46 67° E 06:14:01 10° S visible
09 Oct 9.2 05:31:58 10° NE 05:34:27 20° E 05:36:56 10° SE visible
10 Oct 6.3 06:27:40 10° N 06:30:53 58° WNW 06:34:06 10° SSW visible
11 Oct 8.0 05:51:28 10° NNE 05:54:32 37° E 05:57:36 10° SSE visible
12 Oct 9.8 05:16:30 10° ENE 05:17:56 12° E 05:19:22 10° ESE visible
13 Oct 6.5 06:11:01 10° NNE 06:14:17 76° E 06:17:34 10° S visible
14 Oct 9.1 05:35:02 10° NE 05:37:39 22° E 05:40:17 10° SSE visible
15 Oct 6.4 06:30:31 10° N 06:33:45 53° WNW 06:36:57 10° SSW visible
